| time (UTC) | temp F | wind direction | speed MPH | gust MPH | rain 1hr in | rain 24hr in | rain mn in | humidity % | barometer mb |
| 20260507180054 | 55 | 275 | 0.0 | 4.0 | 0.00 | 0.00 | 0.00 | 81 | 1022.4 |
| 20260507174554 | 54 | 336 | 1.0 | 4.0 | 0.00 | 0.00 | 0.00 | 81 | 1022.5 |
| 20260507173053 | 54 | 40 | 0.0 | 5.0 | 0.00 | 0.00 | 0.00 | 81 | 1022.5 |
| 20260507171553 | 54 | 326 | 1.0 | 4.0 | 0.00 | 0.00 | 0.00 | 81 | 1022.3 |
| 20260507170055 | 55 | 319 | 1.0 | 5.0 | 0.00 | 0.00 | 0.00 | 78 | 1022.4 |
| 20260507164605 | 56 | 20 | 1.0 | 4.0 | 0.00 | 0.00 | 0.00 | 79 | 1022.4 |
| 20260507163046 | 55 | 169 | 1.0 | 4.0 | 0.00 | 0.00 | 0.00 | 81 | 1022.3 |
| 20260507161547 | 54 | 197 | 1.0 | 5.0 | 0.00 | 0.00 | 0.00 | 83 | 1022.4 |
| 20260507160045 | 53 | 142 | 0.0 | 3.0 | 0.00 | 0.00 | 0.00 | 85 | 1022.5 |
| 20260507154538 | 52 | 192 | 0.0 | 4.0 | 0.00 | 0.00 | 0.00 | 86 | 1022.7 |
| 20260507153038 | 51 | 167 | 2.0 | 5.0 | 0.00 | 0.00 | 0.00 | 87 | 1022.8 |
| 20260507151537 | 50 | 205 | 2.0 | 4.0 | 0.00 | 0.00 | 0.00 | 87 | 1022.8 |
| 20260507150038 | 50 | 189 | 0.0 | 3.0 | 0.00 | 0.00 | 0.00 | 88 | 1022.9 |
| 20260507144537 | 50 | 189 | 1.0 | 5.0 | 0.00 | 0.00 | 0.00 | 88 | 1022.8 |
| 20260507143055 | 50 | 171 | 2.0 | 4.0 | 0.00 | 0.00 | 0.00 | 88 | 1022.7 |
| 20260507141552 | 50 | 187 | 1.0 | 3.0 | 0.00 | 0.00 | 0.00 | 89 | 1022.7 |
| 20260507140035 | 49 | 196 | 1.0 | 4.0 | 0.00 | 0.00 | 0.00 | 89 | 1022.7 |
| 20260507134533 | 49 | 202 | 0.0 | 3.0 | 0.00 | 0.00 | 0.00 | 89 | 1022.6 |
| 20260507133035 | 49 | 205 | 0.0 | 2.0 | 0.00 | 0.00 | 0.00 | 89 | 1022.5 |
| 20260507131538 | 49 | 182 | 1.0 | 3.0 | 0.00 | 0.00 | 0.00 | 89 | 1022.4 |
| 20260507130039 | 49 | 184 | 0.0 | 2.0 | 0.00 | 0.00 | 0.00 | 89 | 1022.5 |
| 20260507124531 | 49 | 182 | 1.0 | 3.0 | 0.00 | 0.00 | 0.00 | 89 | 1022.6 |
| 20260507123030 | 49 | 192 | 2.0 | 4.0 | 0.00 | 0.00 | 0.00 | 89 | 1022.6 |
| 20260507121529 | 49 | 181 | 1.0 | 4.0 | 0.00 | 0.00 | 0.00 | 89 | 1022.6 |
| 20260507120028 | 49 | 207 | 1.0 | 4.0 | 0.00 | 0.00 | 0.00 | 89 | 1022.7 |
| 20260507114530 | 49 | 159 | 0.0 | 2.0 | 0.00 | 0.00 | 0.00 | 89 | 1022.9 |
| 20260507113026 | 49 | 158 | 0.0 | 0.0 | 0.00 | 0.00 | 0.00 | 88 | 1022.8 |
| 20260507111526 | 49 | 158 | 0.0 | 1.0 | 0.00 | 0.00 | 0.00 | 88 | 1022.8 |
| 20260507110026 | 50 | 155 | 0.0 | 3.0 | 0.00 | 0.00 | 0.00 | 88 | 1022.8 |
| 20260507104526 | 50 | 161 | 1.0 | 5.0 | 0.00 | 0.00 | 0.00 | 88 | 1022.8 |
| 20260507103025 | 50 | 168 | 0.0 | 2.0 | 0.00 | 0.00 | 0.00 | 88 | 1023.0 |
| 20260507101522 | 50 | 175 | 0.0 | 3.0 | 0.00 | 0.00 | 0.00 | 88 | 1023.0 |
| 20260507100025 | 50 | 182 | 0.0 | 4.0 | 0.00 | 0.00 | 0.00 | 88 | 1022.9 |
| 20260507094521 | 50 | 175 | 1.0 | 6.0 | 0.00 | 0.00 | 0.00 | 88 | 1022.8 |
| 20260507093019 | 50 | 182 | 2.0 | 6.0 | 0.00 | 0.00 | 0.00 | 88 | 1022.8 |
| 20260507091522 | 50 | 177 | 2.0 | 6.0 | 0.00 | 0.00 | 0.00 | 88 | 1022.8 |
| 20260507090018 | 50 | 148 | 2.0 | 8.0 | 0.00 | 0.00 | 0.00 | 88 | 1022.7 |
| 20260507084517 | 50 | 169 | 3.0 | 7.0 | 0.00 | 0.00 | 0.00 | 87 | 1022.7 |
| 20260507083015 | 50 | 192 | 4.0 | 8.0 | 0.00 | 0.00 | 0.00 | 87 | 1022.7 |
| 20260507081512 | 51 | 167 | 4.0 | 7.0 | 0.00 | 0.00 | 0.00 | 87 | 1022.7 |
| 20260507080010 | 51 | 246 | 3.0 | 7.0 | 0.00 | 0.00 | 0.00 | 87 | 1022.5 |
| 20260507074509 | 51 | 132 | 2.0 | 10.0 | 0.00 | 0.00 | 0.00 | 87 | 1022.5 |
| 20260507073007 | 51 | 220 | 3.0 | 8.0 | 0.00 | 0.00 | 0.00 | 87 | 1022.6 |
| 20260507071504 | 51 | 180 | 4.0 | 9.0 | 0.00 | 0.00 | 0.00 | 88 | 1022.4 |
| 20260507070002 | 51 | 198 | 4.0 | 12.0 | 0.00 | 0.00 | 0.00 | 87 | 1022.4 |
| 20260507064503 | 51 | 205 | 4.0 | 11.0 | 0.00 | 0.00 | 0.00 | 87 | 1022.2 |
| 20260507063126 | 52 | 74 | 3.0 | 11.0 | 0.00 | 0.00 | 0.00 | 86 | 1022.2 |
| 20260507061600 | 52 | 211 | 5.0 | 9.0 | 0.00 | 0.00 | 0.00 | 86 | 1022.1 |
| 20260507060114 | 52 | 164 | 3.0 | 12.0 | 0.00 | 0.00 | 0.00 | 86 | 1022.0 |
| 20260507054608 | 52 | 162 | 4.0 | 13.0 | 0.00 | 0.00 | 0.00 | 87 | 1021.8 |
| 20260507053109 | 52 | 165 | 4.0 | 10.0 | 0.00 | 0.00 | 0.00 | 87 | 1022.0 |
| 20260507051607 | 52 | 173 | 3.0 | 17.0 | 0.00 | 0.00 | 0.00 | 86 | 1022.1 |
| 20260507050057 | 52 | 242 | 2.0 | 8.0 | 0.00 | 0.00 | 0.00 | 86 | 1022.2 |
| 20260507044559 | 53 | 252 | 3.0 | 8.0 | 0.00 | 0.00 | 0.00 | 86 | 1022.2 |
| 20260507043058 | 53 | 201 | 4.0 | 12.0 | 0.00 | 0.00 | 0.00 | 86 | 1022.2 |
| 20260507041555 | 53 | 161 | 2.0 | 9.0 | 0.00 | 0.00 | 0.00 | 87 | 1022.0 |
| 20260507040055 | 53 | 202 | 3.0 | 9.0 | 0.00 | 0.00 | 0.00 | 87 | 1021.9 |
| 20260507034555 | 53 | 140 | 2.0 | 9.0 | 0.00 | 0.00 | 0.00 | 86 | 1021.8 |
| 20260507033055 | 53 | 244 | 0.0 | 5.0 | 0.00 | 0.00 | 0.00 | 86 | 1021.9 |
| 20260507031554 | 53 | 198 | 4.0 | 11.0 | 0.00 | 0.00 | 0.00 | 86 | 1021.8 |
| 20260507030054 | 53 | 192 | 2.0 | 7.0 | 0.00 | 0.00 | 0.00 | 86 | 1021.7 |
| 20260507024553 | 53 | 160 | 1.0 | 5.0 | 0.00 | 0.00 | 0.00 | 86 | 1021.7 |
| 20260507023052 | 54 | 176 | 2.0 | 5.0 | 0.00 | 0.00 | 0.00 | 86 | 1021.8 |
| 20260507021552 | 54 | 206 | 0.0 | 5.0 | 0.00 | 0.00 | 0.00 | 85 | 1021.8 |
| 20260507014558 | 54 | 196 | 2.0 | 6.0 | 0.00 | 0.00 | 0.00 | 85 | 1021.8 |
| 20260507013050 | 54 | 172 | 2.0 | 7.0 | 0.00 | 0.00 | 0.00 | 84 | 1021.7 |
| 20260507011551 | 54 | 150 | 1.0 | 6.0 | 0.00 | 0.00 | 0.00 | 84 | 1021.6 |
| 20260507010100 | 55 | 240 | 3.0 | 8.0 | 0.00 | 0.00 | 0.00 | 83 | 1021.7 |
| 20260507004550 | 55 | 180 | 2.0 | 7.0 | 0.00 | 0.00 | 0.00 | 83 | 1021.7 |
| 20260507003049 | 55 | 232 | 5.0 | 9.0 | 0.00 | 0.00 | 0.00 | 83 | 1021.7 |
| 20260507001555 | 55 | 202 | 4.0 | 8.0 | 0.00 | 0.00 | 0.00 | 82 | 1021.7 |
| 20260507000048 | 55 | 211 | 2.0 | 9.0 | 0.00 | 0.00 | 0.00 | 82 | 1021.6 |
| 20260506234550 | 56 | 205 | 6.0 | 9.0 | 0.00 | 0.00 | 0.00 | 81 | 1021.6 |
| 20260506233047 | 55 | 201 | 2.0 | 9.0 | 0.00 | 0.00 | 0.00 | 81 | 1021.6 |
| 20260506231604 | 56 | 196 | 3.0 | 9.0 | 0.00 | 0.00 | 0.00 | 80 | 1021.8 |
| 20260506230104 | 56 | 212 | 4.0 | 9.0 | 0.00 | 0.00 | 0.00 | 80 | 1021.8 |
| 20260506224546 | 56 | 204 | 3.0 | 8.0 | 0.00 | 0.00 | 0.00 | 80 | 1021.9 |
| 20260506223045 | 56 | 167 | 1.0 | 11.0 | 0.00 | 0.00 | 0.00 | 81 | 1021.9 |
| 20260506221558 | 56 | 252 | 5.0 | 8.0 | 0.00 | 0.00 | 0.00 | 80 | 1021.9 |
| 20260506220055 | 57 | 217 | 2.0 | 9.0 | 0.00 | 0.00 | 0.00 | 80 | 1022.0 |
| 20260506214546 | 56 | 169 | 2.0 | 7.0 | 0.00 | 0.00 | 0.00 | 81 | 1022.1 |
| 20260506213048 | 57 | 173 | 2.0 | 8.0 | 0.00 | 0.00 | 0.00 | 80 | 1022.0 |
| 20260506211538 | 56 | 180 | 3.0 | 9.0 | 0.00 | 0.00 | 0.00 | 81 | 1022.1 |
| 20260506210034 | 55 | 208 | 2.0 | 8.0 | 0.00 | 0.00 | 0.00 | 83 | 1022.0 |
| 20260506204535 | 53 | 222 | 4.0 | 9.0 | 0.00 | 0.00 | 0.00 | 85 | 1022.1 |
| 20260506203030 | 53 | 213 | 3.0 | 8.0 | 0.00 | 0.00 | 0.00 | 86 | 1022.2 |
| 20260506201536 | 52 | 275 | 4.0 | 7.0 | 0.00 | 0.00 | 0.00 | 87 | 1022.2 |
| 20260506200024 | 52 | 155 | 4.0 | 9.0 | 0.00 | 0.00 | 0.00 | 88 | 1022.1 |
| 20260506194523 | 52 | 163 | 2.0 | 6.0 | 0.00 | 0.00 | 0.00 | 89 | 1022.0 |
| 20260506193024 | 51 | 199 | 2.0 | 10.0 | 0.00 | 0.00 | 0.00 | 90 | 1022.0 |
| 20260506191520 | 51 | 196 | 4.0 | 8.0 | 0.00 | 0.00 | 0.00 | 90 | 1021.9 |
| 20260506190027 | 51 | 219 | 3.0 | 7.0 | 0.00 | 0.00 | 0.00 | 90 | 1021.8 |
| 20260506184521 | 51 | 178 | 3.0 | 8.0 | 0.00 | 0.00 | 0.00 | 90 | 1021.9 |
| 20260506183018 | 51 | 215 | 3.0 | 8.0 | 0.00 | 0.00 | 0.00 | 90 | 1021.7 |
| 20260506181518 | 51 | 205 | 3.0 | 9.0 | 0.00 | 0.00 | 0.00 | 90 | 1021.6 |